Time,TemperatureF,DewpointF,PressureIn,WindDirection,WindDirectionDegrees,WindSpeedMPH,WindSpeedGustMPH,Humidity,HourlyPrecipIn,Conditions,Clouds,dailyrainin,SolarRadiationWatts/m^2,SoftwareType,DateUTC
2013-01-05 00:01:00,22.2,17.5,31.43,NNW,342,0.0,2.0,82,0.00,,,0.00,0.00,VWS V14.00,2013-01-05 07:01:00,
2013-01-05 00:06:00,22.2,17.5,31.43,NNW,342,2.0,3.0,82,0.00,,,0.00,0.00,VWS V14.00,2013-01-05 07:06:00,
2013-01-05 00:11:00,22.2,17.3,31.43,NNW,342,1.0,4.0,81,0.00,,,0.00,0.00,VWS V14.00,2013-01-05 07:11:00,
2013-01-05 00:16:00,22.2,17.3,31.42,NNW,342,0.0,4.0,81,0.00,,,0.00,0.00,VWS V14.00,2013-01-05 07:16:00,
2013-01-05 00:21:00,22.2,17.3,31.41,NNW,341,0.0,0.0,81,0.00,,,0.00,0.00,VWS V14.00,2013-01-05 07:21:00,
2013-01-05 00:26:00,22.2,17.0,31.43,NNW,342,2.0,4.0,80,0.00,,,0.00,0.00,VWS V14.00,2013-01-05 07:26:00,
2013-01-05 00:31:00,22.2,17.0,31.42,NNW,342,0.0,4.0,80,0.00,,,0.00,0.00,VWS V14.00,2013-01-05 07:31:00,
2013-01-05 00:36:00,22.2,17.0,31.43,NNW,341,0.0,0.0,80,0.00,,,0.00,0.00,VWS V14.00,2013-01-05 07:36:00,
2013-01-05 00:41:00,22.2,16.7,31.42,NNW,342,0.0,0.0,79,0.00,,,0.00,0.00,VWS V14.00,2013-01-05 07:41:00,
2013-01-05 00:46:00,22.2,16.7,31.43,NNW,342,0.0,0.0,79,0.00,,,0.00,0.00,VWS V14.00,2013-01-05 07:46:00,
2013-01-05 00:51:00,22.2,16.7,31.43,NNW,341,0.0,0.0,79,0.00,,,0.00,0.00,VWS V14.00,2013-01-05 07:51:00,
2013-01-05 00:56:00,22.2,16.7,31.43,NNW,341,0.0,2.0,79,0.00,,,0.00,0.00,VWS V14.00,2013-01-05 07:56:00,
2013-01-05 01:01:00,22.2,16.7,31.43,NNW,341,0.0,2.0,79,0.00,,,0.00,0.00,VWS V14.00,2013-01-05 08:01:00,
2013-01-05 01:06:00,22.2,16.7,31.43,NNW,341,1.0,1.0,79,0.00,,,0.00,0.00,VWS V14.00,2013-01-05 08:06:00,
2013-01-05 01:11:00,22.1,16.6,31.43,NNW,342,0.0,2.0,79,0.00,,,0.00,0.00,VWS V14.00,2013-01-05 08:11:00,
2013-01-05 01:16:00,22.0,16.5,31.43,NNW,341,0.0,2.0,79,0.00,,,0.00,0.00,VWS V14.00,2013-01-05 08:16:00,
2013-01-05 01:21:00,21.8,16.6,31.43,NNW,342,0.0,0.0,80,0.00,,,0.00,0.00,VWS V14.00,2013-01-05 08:21:00,
2013-01-05 01:26:00,21.7,16.5,31.43,NNW,342,0.0,0.0,80,0.00,,,0.00,0.00,VWS V14.00,2013-01-05 08:26:00,
2013-01-05 01:31:00,21.6,16.4,31.43,NNW,342,0.0,0.0,80,0.00,,,0.00,0.00,VWS V14.00,2013-01-05 08:31:00,
2013-01-05 01:36:00,21.3,16.1,31.45,NNW,341,1.0,2.0,80,0.00,,,0.00,0.00,VWS V14.00,2013-01-05 08:36:00,
2013-01-05 01:41:00,21.0,16.1,31.45,NNW,341,0.0,2.0,81,0.00,,,0.00,0.00,VWS V14.00,2013-01-05 08:41:00,
2013-01-05 01:46:00,20.8,16.2,31.45,NNW,342,1.0,2.0,82,0.00,,,0.00,0.00,VWS V14.00,2013-01-05 08:46:00,
2013-01-05 01:51:00,20.7,16.4,31.45,NNW,342,0.0,0.0,83,0.00,,,0.00,0.00,VWS V14.00,2013-01-05 08:51:00,
2013-01-05 01:56:00,20.6,16.3,31.45,NNW,342,0.0,0.0,83,0.00,,,0.00,0.00,VWS V14.00,2013-01-05 08:56:00,
2013-01-05 02:01:00,20.5,16.2,31.45,NNW,341,0.0,0.0,83,0.00,,,0.00,0.00,VWS V14.00,2013-01-05 09:01:00,
2013-01-05 02:06:00,20.4,16.1,31.44,NNW,341,0.0,0.0,83,0.00,,,0.00,0.00,VWS V14.00,2013-01-05 09:06:00,
2013-01-05 02:11:00,20.3,16.2,31.44,NNW,342,0.0,0.0,84,0.00,,,0.00,0.00,VWS V14.00,2013-01-05 09:11:00,
2013-01-05 02:16:00,20.2,16.1,31.44,NNW,342,0.0,0.0,84,0.00,,,0.00,0.00,VWS V14.00,2013-01-05 09:16:00,
2013-01-05 02:21:00,20.1,16.0,31.44,NNW,342,0.0,0.0,84,0.00,,,0.00,0.00,VWS V14.00,2013-01-05 09:21:00,
2013-01-05 02:26:00,20.0,15.9,31.44,NNW,342,0.0,0.0,84,0.00,,,0.00,0.00,VWS V14.00,2013-01-05 09:26:00,
2013-01-05 02:31:00,19.9,15.9,31.44,NNW,342,0.0,1.0,84,0.00,,,0.00,0.00,VWS V14.00,2013-01-05 09:31:00,
2013-01-05 02:36:00,19.7,15.7,31.44,NNW,341,0.0,0.0,84,0.00,,,0.00,0.00,VWS V14.00,2013-01-05 09:36:00,
2013-01-05 02:41:00,19.7,15.7,31.44,NNW,341,0.0,0.0,84,0.00,,,0.00,0.00,VWS V14.00,2013-01-05 09:41:00,
2013-01-05 02:46:00,19.6,15.6,31.44,NNW,341,0.0,0.0,84,0.00,,,0.00,0.00,VWS V14.00,2013-01-05 09:46:00,
2013-01-05 02:51:00,19.4,15.4,31.45,NNW,342,0.0,0.0,84,0.00,,,0.00,0.00,VWS V14.00,2013-01-05 09:51:00,
2013-01-05 02:56:00,19.2,15.2,31.45,NNW,342,0.0,0.0,84,0.00,,,0.00,0.00,VWS V14.00,2013-01-05 09:56:00,
2013-01-05 03:01:00,19.1,15.3,31.45,NNW,341,0.0,0.0,85,0.00,,,0.00,0.00,VWS V14.00,2013-01-05 10:01:00,
2013-01-05 03:06:00,19.0,15.2,31.45,NNW,342,0.0,0.0,85,0.00,,,0.00,0.00,VWS V14.00,2013-01-05 10:06:00,
2013-01-05 03:11:00,19.0,15.2,31.45,NNW,341,0.0,0.0,85,0.00,,,0.00,0.00,VWS V14.00,2013-01-05 10:11:00,
2013-01-05 03:16:00,18.9,15.1,31.45,NNW,341,0.0,0.0,85,0.00,,,0.00,0.00,VWS V14.00,2013-01-05 10:16:00,
2013-01-05 03:21:00,18.9,15.1,31.46,NNW,342,0.0,0.0,85,0.00,,,0.00,0.00,VWS V14.00,2013-01-05 10:21:00,
2013-01-05 03:26:00,18.9,15.1,31.45,NNW,342,0.0,0.0,85,0.00,,,0.00,0.00,VWS V14.00,2013-01-05 10:26:00,
2013-01-05 03:31:00,18.8,15.1,31.45,NNW,342,0.0,0.0,85,0.00,,,0.00,0.00,VWS V14.00,2013-01-05 10:31:00,
2013-01-05 03:36:00,18.7,14.9,31.45,NNW,342,0.0,0.0,85,0.00,,,0.00,0.00,VWS V14.00,2013-01-05 10:36:00,
2013-01-05 03:41:00,18.7,14.9,31.45,NNW,342,1.0,1.0,85,0.00,,,0.00,0.00,VWS V14.00,2013-01-05 10:41:00,
2013-01-05 03:46:00,18.6,14.9,31.45,NNW,341,0.0,2.0,85,0.00,,,0.00,0.00,VWS V14.00,2013-01-05 10:46:00,
2013-01-05 03:51:00,18.5,15.0,31.45,NNW,341,0.0,0.0,86,0.00,,,0.00,0.00,VWS V14.00,2013-01-05 10:51:00,
2013-01-05 03:56:00,18.5,15.0,31.45,NNW,341,0.0,0.0,86,0.00,,,0.00,0.00,VWS V14.00,2013-01-05 10:56:00,
2013-01-05 04:01:00,18.6,15.1,31.45,NNW,342,1.0,1.0,86,0.00,,,0.00,0.00,VWS V14.00,2013-01-05 11:01:00,
2013-01-05 04:06:00,18.6,15.1,31.45,NNW,342,1.0,2.0,86,0.00,,,0.00,0.00,VWS V14.00,2013-01-05 11:06:00,
2013-01-05 04:11:00,18.6,15.1,31.45,NNW,342,0.0,2.0,86,0.00,,,0.00,0.00,VWS V14.00,2013-01-05 11:11:00,
2013-01-05 04:16:00,18.5,15.0,31.45,NNW,342,0.0,2.0,86,0.00,,,0.00,0.00,VWS V14.00,2013-01-05 11:16:00,
2013-01-05 04:21:00,18.4,14.9,31.46,NNW,341,0.0,0.0,86,0.00,,,0.00,0.00,VWS V14.00,2013-01-05 11:21:00,
2013-01-05 04:26:00,18.3,14.8,31.46,NNW,342,0.0,0.0,86,0.00,,,0.00,0.00,VWS V14.00,2013-01-05 11:26:00,
2013-01-05 04:31:00,18.2,14.7,31.46,NNW,342,0.0,0.0,86,0.00,,,0.00,0.00,VWS V14.00,2013-01-05 11:31:00,
2013-01-05 04:36:00,18.1,14.6,31.46,NNW,342,0.0,0.0,86,0.00,,,0.00,0.00,VWS V14.00,2013-01-05 11:36:00,
2013-01-05 04:41:00,18.0,14.5,31.46,NNW,342,0.0,0.0,86,0.00,,,0.00,0.00,VWS V14.00,2013-01-05 11:41:00,
2013-01-05 04:46:00,18.0,14.5,31.46,NNW,341,0.0,0.0,86,0.00,,,0.00,0.00,VWS V14.00,2013-01-05 11:46:00,
2013-01-05 04:51:00,17.9,14.4,31.46,NNW,341,0.0,0.0,86,0.00,,,0.00,0.00,VWS V14.00,2013-01-05 11:51:00,
2013-01-05 04:56:00,17.9,14.4,31.46,NNW,342,0.0,0.0,86,0.00,,,0.00,0.00,VWS V14.00,2013-01-05 11:56:00,
2013-01-05 05:01:00,17.8,14.3,31.46,NNW,341,0.0,0.0,86,0.00,,,0.00,0.00,VWS V14.00,2013-01-05 12:01:00,
2013-01-05 05:06:00,17.7,14.2,31.46,NNW,342,0.0,0.0,86,0.00,,,0.00,0.00,VWS V14.00,2013-01-05 12:06:00,
2013-01-05 05:11:00,17.7,14.2,31.46,NNW,341,0.0,0.0,86,0.00,,,0.00,0.00,VWS V14.00,2013-01-05 12:11:00,
2013-01-05 05:16:00,17.6,14.1,31.45,NNW,342,0.0,0.0,86,0.00,,,0.00,0.00,VWS V14.00,2013-01-05 12:16:00,
2013-01-05 05:21:00,17.5,14.0,31.45,NNW,342,0.0,0.0,86,0.00,,,0.00,0.00,VWS V14.00,2013-01-05 12:21:00,
2013-01-05 05:26:00,17.5,14.0,31.45,NNW,341,0.0,0.0,86,0.00,,,0.00,0.00,VWS V14.00,2013-01-05 12:26:00,
2013-01-05 05:31:00,17.4,14.2,31.45,NNW,341,0.0,0.0,87,0.00,,,0.00,0.00,VWS V14.00,2013-01-05 12:31:00,
2013-01-05 05:36:00,17.3,13.8,31.46,NNW,342,0.0,0.0,86,0.00,,,0.00,0.00,VWS V14.00,2013-01-05 12:36:00,
2013-01-05 05:41:00,17.3,14.1,31.46,NNW,342,0.0,0.0,87,0.00,,,0.00,0.00,VWS V14.00,2013-01-05 12:41:00,
2013-01-05 05:46:00,17.3,14.1,31.46,NNW,342,0.0,0.0,87,0.00,,,0.00,0.00,VWS V14.00,2013-01-05 12:46:00,
2013-01-05 05:51:00,17.6,14.7,31.46,NNW,341,0.0,0.0,88,0.00,,,0.00,0.00,VWS V14.00,2013-01-05 12:51:00,
2013-01-05 05:56:00,17.8,14.9,31.46,NNW,341,0.0,0.0,88,0.00,,,0.00,0.00,VWS V14.00,2013-01-05 12:56:00,
2013-01-05 06:01:00,18.0,15.1,31.46,NNW,342,0.0,0.0,88,0.00,,,0.00,0.00,VWS V14.00,2013-01-05 13:01:00,
2013-01-05 06:06:00,18.1,14.9,31.46,NNW,341,0.0,0.0,87,0.00,,,0.00,0.00,VWS V14.00,2013-01-05 13:06:00,
2013-01-05 06:11:00,18.1,14.9,31.46,NNW,342,0.0,0.0,87,0.00,,,0.00,0.00,VWS V14.00,2013-01-05 13:11:00,
2013-01-05 06:16:00,18.1,14.9,31.46,NNW,342,0.0,0.0,87,0.00,,,0.00,0.00,VWS V14.00,2013-01-05 13:16:00,
2013-01-05 06:21:00,18.2,15.0,31.46,NNW,342,0.0,0.0,87,0.00,,,0.00,0.00,VWS V14.00,2013-01-05 13:21:00,
2013-01-05 06:26:00,18.2,15.0,31.46,NNW,342,0.0,0.0,87,0.00,,,0.00,0.00,VWS V14.00,2013-01-05 13:26:00,
2013-01-05 06:31:00,18.3,15.1,31.46,NNW,342,0.0,0.0,87,0.00,,,0.00,0.00,VWS V14.00,2013-01-05 13:31:00,
2013-01-05 06:36:00,18.3,15.1,31.46,NNW,342,0.0,0.0,87,0.00,,,0.00,0.00,VWS V14.00,2013-01-05 13:36:00,
2013-01-05 06:41:00,18.3,15.1,31.46,NNW,341,0.0,0.0,87,0.00,,,0.00,0.00,VWS V14.00,2013-01-05 13:41:00,
2013-01-05 06:46:00,18.2,15.0,31.46,NNW,342,0.0,0.0,87,0.00,,,0.00,0.00,VWS V14.00,2013-01-05 13:46:00,
2013-01-05 06:51:00,17.9,14.4,31.46,NNW,342,0.0,3.0,86,0.00,,,0.00,0.00,VWS V14.00,2013-01-05 13:51:00,
2013-01-05 06:56:00,17.3,13.0,31.47,NNW,341,0.0,3.0,83,0.00,,,0.00,0.00,VWS V14.00,2013-01-05 13:56:00,
2013-01-05 07:01:00,16.5,11.7,31.47,NNW,342,0.0,3.0,81,0.00,,,0.00,0.00,VWS V14.00,2013-01-05 14:01:00,
2013-01-05 07:06:00,15.8,11.0,31.48,NNW,341,0.0,0.0,81,0.00,,,0.00,0.00,VWS V14.00,2013-01-05 14:06:00,
2013-01-05 07:11:00,15.1,10.3,31.48,NNW,341,0.0,0.0,81,0.00,,,0.00,0.00,VWS V14.00,2013-01-05 14:11:00,
2013-01-05 07:16:00,14.5,10.0,31.48,NNW,342,0.0,1.0,82,0.00,,,0.00,0.00,VWS V14.00,2013-01-05 14:16:00,
2013-01-05 07:21:00,14.1,9.9,31.49,NNW,341,0.0,0.0,83,0.00,,,0.00,0.00,VWS V14.00,2013-01-05 14:21:00,
2013-01-05 07:26:00,13.7,9.8,31.49,NNW,341,0.0,0.0,84,0.00,,,0.00,0.00,VWS V14.00,2013-01-05 14:26:00,
2013-01-05 07:31:00,13.4,9.7,31.49,NNW,342,0.0,0.0,85,0.00,,,0.00,0.00,VWS V14.00,2013-01-05 14:31:00,
2013-01-05 07:36:00,13.2,9.6,31.49,NNW,342,0.0,0.0,85,0.00,,,0.00,0.00,VWS V14.00,2013-01-05 14:36:00,
2013-01-05 07:41:00,13.1,9.7,31.49,NNW,342,0.0,0.0,86,0.00,,,0.00,0.00,VWS V14.00,2013-01-05 14:41:00,
2013-01-05 07:46:00,13.2,10.1,31.49,NNW,342,0.0,0.0,87,0.00,,,0.00,0.00,VWS V14.00,2013-01-05 14:46:00,
2013-01-05 07:51:00,13.3,10.2,31.49,NNW,342,0.0,0.0,87,0.00,,,0.00,0.00,VWS V14.00,2013-01-05 14:51:00,
2013-01-05 07:56:00,13.4,10.5,31.49,NNW,341,0.0,0.0,88,0.00,,,0.00,0.00,VWS V14.00,2013-01-05 14:56:00,
2013-01-05 08:01:00,13.4,10.5,31.49,NNW,341,0.0,0.0,88,0.00,,,0.00,0.00,VWS V14.00,2013-01-05 15:01:00,
2013-01-05 08:06:00,13.3,10.4,31.49,NNW,342,0.0,0.0,88,0.00,,,0.00,0.00,VWS V14.00,2013-01-05 15:06:00,
2013-01-05 08:11:00,13.2,10.3,31.49,NNW,342,0.0,0.0,88,0.00,,,0.00,0.00,VWS V14.00,2013-01-05 15:11:00,
2013-01-05 08:16:00,13.2,10.3,31.49,NNW,342,0.0,0.0,88,0.00,,,0.00,0.00,VWS V14.00,2013-01-05 15:16:00,
2013-01-05 08:21:00,13.2,10.3,31.49,NNW,342,0.0,0.0,88,0.00,,,0.00,5.00,VWS V14.00,2013-01-05 15:21:00,
2013-01-05 08:26:00,13.2,10.3,31.49,NNW,342,0.0,0.0,88,0.00,,,0.00,5.00,VWS V14.00,2013-01-05 15:26:00,
2013-01-05 08:31:00,13.4,10.5,31.49,NNW,341,0.0,0.0,88,0.00,,,0.00,9.00,VWS V14.00,2013-01-05 15:31:00,
2013-01-05 08:36:00,13.5,10.6,31.49,NNW,342,0.0,0.0,88,0.00,,,0.00,11.00,VWS V14.00,2013-01-05 15:36:00,
2013-01-05 08:41:00,13.7,10.8,31.49,NNW,342,0.0,0.0,88,0.00,,,0.00,12.00,VWS V14.00,2013-01-05 15:41:00,
2013-01-05 08:46:00,13.8,11.2,31.50,NNW,341,0.0,0.0,89,0.00,,,0.00,14.00,VWS V14.00,2013-01-05 15:46:00,
2013-01-05 08:51:00,14.0,11.4,31.49,NNW,341,0.0,1.0,89,0.00,,,0.00,16.00,VWS V14.00,2013-01-05 15:51:00,
2013-01-05 08:56:00,14.1,11.5,31.49,NNW,342,0.0,1.0,89,0.00,,,0.00,25.00,VWS V14.00,2013-01-05 15:56:00,
2013-01-05 09:01:00,14.2,11.6,31.49,NNW,342,0.0,1.0,89,0.00,,,0.00,37.00,VWS V14.00,2013-01-05 16:01:00,
2013-01-05 09:06:00,14.4,11.8,31.49,NNW,341,0.0,0.0,89,0.00,,,0.00,42.00,VWS V14.00,2013-01-05 16:06:00,
2013-01-05 09:11:00,14.8,12.1,31.48,NNW,342,0.0,0.0,89,0.00,,,0.00,54.00,VWS V14.00,2013-01-05 16:11:00,
2013-01-05 09:16:00,15.2,12.8,31.48,NNW,342,0.0,0.0,90,0.00,,,0.00,81.00,VWS V14.00,2013-01-05 16:16:00,
2013-01-05 09:21:00,15.4,12.7,31.48,NNW,342,0.0,0.0,89,0.00,,,0.00,90.00,VWS V14.00,2013-01-05 16:21:00,
2013-01-05 09:26:00,15.7,13.3,31.48,NNW,342,0.0,0.0,90,0.00,,,0.00,118.00,VWS V14.00,2013-01-05 16:26:00,
2013-01-05 09:31:00,16.2,13.8,31.48,NNW,342,0.0,0.0,90,0.00,,,0.00,135.00,VWS V14.00,2013-01-05 16:31:00,
2013-01-05 09:36:00,17.1,14.7,31.47,NNW,342,0.0,0.0,90,0.00,,,0.00,142.00,VWS V14.00,2013-01-05 16:36:00,
2013-01-05 09:41:00,17.6,15.4,31.47,NNW,341,0.0,0.0,91,0.00,,,0.00,156.00,VWS V14.00,2013-01-05 16:41:00,
2013-01-05 09:46:00,18.1,15.7,31.47,NNW,342,0.0,0.0,90,0.00,,,0.00,167.00,VWS V14.00,2013-01-05 16:46:00,
2013-01-05 09:51:00,18.5,16.1,31.47,NNW,342,0.0,0.0,90,0.00,,,0.00,100.00,VWS V14.00,2013-01-05 16:51:00,
2013-01-05 09:56:00,18.8,16.4,31.46,NNW,342,0.0,0.0,90,0.00,,,0.00,123.00,VWS V14.00,2013-01-05 16:56:00,
2013-01-05 10:01:00,19.1,16.7,31.46,NNW,341,0.0,0.0,90,0.00,,,0.00,195.00,VWS V14.00,2013-01-05 17:01:00,
2013-01-05 10:06:00,19.2,16.5,31.47,NNW,342,2.0,2.0,89,0.00,,,0.00,211.00,VWS V14.00,2013-01-05 17:06:00,
2013-01-05 10:11:00,19.3,16.1,31.47,NNW,342,0.0,2.0,87,0.00,,,0.00,218.00,VWS V14.00,2013-01-05 17:11:00,
2013-01-05 10:16:00,19.3,15.8,31.47,NNW,342,2.0,3.0,86,0.00,,,0.00,225.00,VWS V14.00,2013-01-05 17:16:00,
2013-01-05 10:21:00,19.4,15.6,31.47,NNW,341,0.0,2.0,85,0.00,,,0.00,230.00,VWS V14.00,2013-01-05 17:21:00,
2013-01-05 10:26:00,19.7,15.7,31.46,NNW,342,1.0,2.0,84,0.00,,,0.00,234.00,VWS V14.00,2013-01-05 17:26:00,
2013-01-05 10:31:00,19.8,15.8,31.46,NNW,342,2.0,3.0,84,0.00,,,0.00,243.00,VWS V14.00,2013-01-05 17:31:00,
2013-01-05 10:36:00,20.1,15.8,31.45,NNW,341,2.0,3.0,83,0.00,,,0.00,251.00,VWS V14.00,2013-01-05 17:36:00,
2013-01-05 10:41:00,20.2,15.3,31.46,NNW,342,0.0,3.0,81,0.00,,,0.00,255.00,VWS V14.00,2013-01-05 17:41:00,
2013-01-05 10:46:00,20.4,15.5,31.46,NNW,342,0.0,3.0,81,0.00,,,0.00,262.00,VWS V14.00,2013-01-05 17:46:00,
2013-01-05 10:51:00,20.7,15.5,31.45,NNW,342,0.0,0.0,80,0.00,,,0.00,267.00,VWS V14.00,2013-01-05 17:51:00,
2013-01-05 10:56:00,21.0,15.8,31.45,NNW,341,0.0,0.0,80,0.00,,,0.00,272.00,VWS V14.00,2013-01-05 17:56:00,
2013-01-05 11:01:00,21.4,16.2,31.45,NNW,342,0.0,0.0,80,0.00,,,0.00,274.00,VWS V14.00,2013-01-05 18:01:00,
2013-01-05 11:06:00,21.8,16.6,31.44,NNW,342,0.0,0.0,80,0.00,,,0.00,281.00,VWS V14.00,2013-01-05 18:06:00,
2013-01-05 11:11:00,22.2,16.7,31.44,NNW,342,0.0,0.0,79,0.00,,,0.00,288.00,VWS V14.00,2013-01-05 18:11:00,
2013-01-05 11:16:00,22.6,17.1,31.43,NNW,342,0.0,0.0,79,0.00,,,0.00,294.00,VWS V14.00,2013-01-05 18:16:00,
2013-01-05 11:21:00,22.9,17.1,31.43,NNW,341,0.0,0.0,78,0.00,,,0.00,292.00,VWS V14.00,2013-01-05 18:21:00,
2013-01-05 11:26:00,23.2,17.4,31.43,NNW,342,0.0,0.0,78,0.00,,,0.00,299.00,VWS V14.00,2013-01-05 18:26:00,
2013-01-05 11:31:00,23.5,17.7,31.41,NNW,342,1.0,1.0,78,0.00,,,0.00,301.00,VWS V14.00,2013-01-05 18:31:00,
2013-01-05 11:36:00,24.0,18.1,31.41,NNW,341,2.0,4.0,78,0.00,,,0.00,295.00,VWS V14.00,2013-01-05 18:36:00,
2013-01-05 11:41:00,24.4,17.9,31.41,NNW,342,0.0,4.0,76,0.00,,,0.00,304.00,VWS V14.00,2013-01-05 18:41:00,
2013-01-05 11:46:00,24.7,18.2,31.40,NNW,342,0.0,4.0,76,0.00,,,0.00,297.00,VWS V14.00,2013-01-05 18:46:00,
2013-01-05 11:51:00,24.9,18.4,31.40,NNW,342,2.0,3.0,76,0.00,,,0.00,323.00,VWS V14.00,2013-01-05 18:51:00,
2013-01-05 11:56:00,25.2,18.7,31.40,NNW,341,0.0,3.0,76,0.00,,,0.00,297.00,VWS V14.00,2013-01-05 18:56:00,
2013-01-05 12:01:00,25.5,19.0,31.39,NNW,342,0.0,3.0,76,0.00,,,0.00,308.00,VWS V14.00,2013-01-05 19:01:00,
2013-01-05 12:06:00,25.7,18.9,31.38,NNW,342,1.0,2.0,75,0.00,,,0.00,339.00,VWS V14.00,2013-01-05 19:06:00,
2013-01-05 12:11:00,25.9,19.4,31.38,NNW,342,0.0,2.0,76,0.00,,,0.00,332.00,VWS V14.00,2013-01-05 19:11:00,
2013-01-05 12:16:00,26.2,19.1,31.37,NNW,341,1.0,3.0,74,0.00,,,0.00,338.00,VWS V14.00,2013-01-05 19:16:00,
2013-01-05 12:21:00,26.6,18.8,31.37,NNW,342,0.0,4.0,72,0.00,,,0.00,322.00,VWS V14.00,2013-01-05 19:21:00,
2013-01-05 12:26:00,26.9,18.8,31.36,NNW,342,0.0,4.0,71,0.00,,,0.00,278.00,VWS V14.00,2013-01-05 19:26:00,
2013-01-05 12:31:00,27.2,19.4,31.36,NNW,341,0.0,4.0,72,0.00,,,0.00,260.00,VWS V14.00,2013-01-05 19:31:00,
2013-01-05 12:36:00,27.4,19.6,31.36,NNW,342,2.0,2.0,72,0.00,,,0.00,288.00,VWS V14.00,2013-01-05 19:36:00,
2013-01-05 12:41:00,27.5,19.4,31.34,NNW,342,1.0,2.0,71,0.00,,,0.00,290.00,VWS V14.00,2013-01-05 19:41:00,
2013-01-05 12:46:00,27.6,19.4,31.34,NNW,342,2.0,4.0,71,0.00,,,0.00,306.00,VWS V14.00,2013-01-05 19:46:00,
2013-01-05 12:51:00,27.7,19.5,31.34,NNW,341,1.0,2.0,71,0.00,,,0.00,309.00,VWS V14.00,2013-01-05 19:51:00,
2013-01-05 12:56:00,27.9,19.7,31.33,NNW,342,2.0,3.0,71,0.00,,,0.00,304.00,VWS V14.00,2013-01-05 19:56:00,
2013-01-05 13:01:00,27.9,19.7,31.33,NNW,342,2.0,3.0,71,0.00,,,0.00,308.00,VWS V14.00,2013-01-05 20:01:00,
2013-01-05 13:06:00,27.9,19.7,31.33,NNW,341,4.0,4.0,71,0.00,,,0.00,323.00,VWS V14.00,2013-01-05 20:06:00,
2013-01-05 13:11:00,28.0,20.2,31.33,NNW,341,2.0,4.0,72,0.00,,,0.00,339.00,VWS V14.00,2013-01-05 20:11:00,
2013-01-05 13:16:00,28.0,20.2,31.33,NNW,342,2.0,4.0,72,0.00,,,0.00,311.00,VWS V14.00,2013-01-05 20:16:00,
2013-01-05 13:21:00,28.1,20.2,31.33,NNW,342,3.0,4.0,72,0.00,,,0.00,309.00,VWS V14.00,2013-01-05 20:21:00,
2013-01-05 13:26:00,28.0,20.2,31.33,NNW,341,3.0,4.0,72,0.00,,,0.00,267.00,VWS V14.00,2013-01-05 20:26:00,
2013-01-05 13:31:00,28.0,20.5,31.32,NNW,342,3.0,4.0,73,0.00,,,0.00,306.00,VWS V14.00,2013-01-05 20:31:00,
2013-01-05 13:36:00,28.0,20.5,31.32,NNW,342,3.0,5.0,73,0.00,,,0.00,272.00,VWS V14.00,2013-01-05 20:36:00,
2013-01-05 13:41:00,28.0,20.5,31.32,NNW,341,3.0,5.0,73,0.00,,,0.00,267.00,VWS V14.00,2013-01-05 20:41:00,
2013-01-05 13:46:00,28.1,20.6,31.31,NNW,341,2.0,5.0,73,0.00,,,0.00,279.00,VWS V14.00,2013-01-05 20:46:00,
2013-01-05 13:51:00,28.3,21.1,31.31,NNW,342,4.0,4.0,74,0.00,,,0.00,306.00,VWS V14.00,2013-01-05 20:51:00,
2013-01-05 13:56:00,28.5,20.6,31.31,NNW,342,3.0,5.0,72,0.00,,,0.00,257.00,VWS V14.00,2013-01-05 20:56:00,
2013-01-05 14:01:00,28.8,20.9,31.31,NNW,342,4.0,5.0,72,0.00,,,0.00,272.00,VWS V14.00,2013-01-05 21:01:00,
2013-01-05 14:06:00,29.0,21.4,31.30,NNW,342,2.0,4.0,73,0.00,,,0.00,288.00,VWS V14.00,2013-01-05 21:06:00,
2013-01-05 14:11:00,29.3,21.4,31.30,NNW,342,2.0,4.0,72,0.00,,,0.00,287.00,VWS V14.00,2013-01-05 21:11:00,
2013-01-05 14:16:00,29.7,21.8,31.30,NNW,342,2.0,5.0,72,0.00,,,0.00,281.00,VWS V14.00,2013-01-05 21:16:00,
2013-01-05 14:21:00,29.9,21.3,31.30,NNW,341,2.0,4.0,70,0.00,,,0.00,257.00,VWS V14.00,2013-01-05 21:21:00,
2013-01-05 14:26:00,30.1,21.9,31.30,NNW,341,4.0,4.0,71,0.00,,,0.00,251.00,VWS V14.00,2013-01-05 21:26:00,
2013-01-05 14:31:00,30.1,21.5,31.29,NNW,341,2.0,4.0,70,0.00,,,0.00,139.00,VWS V14.00,2013-01-05 21:31:00,
2013-01-05 14:36:00,30.0,21.4,31.29,NNW,342,2.0,3.0,70,0.00,,,0.00,130.00,VWS V14.00,2013-01-05 21:36:00,
2013-01-05 14:41:00,29.7,21.1,31.29,NNW,342,2.0,3.0,70,0.00,,,0.00,167.00,VWS V14.00,2013-01-05 21:41:00,
2013-01-05 14:46:00,29.4,21.2,31.29,NNW,341,1.0,3.0,71,0.00,,,0.00,139.00,VWS V14.00,2013-01-05 21:46:00,
2013-01-05 14:51:00,29.0,20.8,31.29,NNW,342,0.0,4.0,71,0.00,,,0.00,137.00,VWS V14.00,2013-01-05 21:51:00,
2013-01-05 14:56:00,28.9,21.0,31.28,NNW,341,0.0,4.0,72,0.00,,,0.00,171.00,VWS V14.00,2013-01-05 21:56:00,
2013-01-05 15:01:00,28.9,21.0,31.28,NNW,342,0.0,4.0,72,0.00,,,0.00,181.00,VWS V14.00,2013-01-05 22:01:00,
2013-01-05 15:06:00,29.0,21.1,31.28,NNW,341,0.0,0.0,72,0.00,,,0.00,167.00,VWS V14.00,2013-01-05 22:06:00,
2013-01-05 15:11:00,29.2,21.3,31.28,NNW,341,0.0,0.0,72,0.00,,,0.00,165.00,VWS V14.00,2013-01-05 22:11:00,
2013-01-05 15:16:00,29.3,21.4,31.28,NNW,342,2.0,2.0,72,0.00,,,0.00,200.00,VWS V14.00,2013-01-05 22:16:00,
2013-01-05 15:21:00,29.5,21.6,31.28,NNW,342,1.0,2.0,72,0.00,,,0.00,193.00,VWS V14.00,2013-01-05 22:21:00,
2013-01-05 15:26:00,29.7,21.5,31.28,NNW,341,1.0,2.0,71,0.00,,,0.00,162.00,VWS V14.00,2013-01-05 22:26:00,
2013-01-05 15:31:00,29.8,21.2,31.28,NNW,341,0.0,2.0,70,0.00,,,0.00,120.00,VWS V14.00,2013-01-05 22:31:00,
2013-01-05 15:36:00,29.8,21.2,31.28,NNW,342,0.0,0.0,70,0.00,,,0.00,84.00,VWS V14.00,2013-01-05 22:36:00,
2013-01-05 15:41:00,29.7,21.1,31.28,NNW,342,0.0,1.0,70,0.00,,,0.00,72.00,VWS V14.00,2013-01-05 22:41:00,
2013-01-05 15:46:00,29.6,21.0,31.28,NNW,341,0.0,1.0,70,0.00,,,0.00,54.00,VWS V14.00,2013-01-05 22:46:00,
2013-01-05 15:51:00,29.5,20.9,31.28,NNW,342,0.0,0.0,70,0.00,,,0.00,47.00,VWS V14.00,2013-01-05 22:51:00,
2013-01-05 15:56:00,29.4,20.8,31.28,NNW,342,0.0,0.0,70,0.00,,,0.00,46.00,VWS V14.00,2013-01-05 22:56:00,
2013-01-05 16:01:00,29.3,20.7,31.28,NNW,341,0.0,0.0,70,0.00,,,0.00,42.00,VWS V14.00,2013-01-05 23:01:00,
2013-01-05 16:06:00,29.1,20.5,31.29,NNW,341,0.0,0.0,70,0.00,,,0.00,39.00,VWS V14.00,2013-01-05 23:06:00,
2013-01-05 16:11:00,29.0,20.5,31.29,NNW,342,0.0,0.0,70,0.00,,,0.00,35.00,VWS V14.00,2013-01-05 23:11:00,
2013-01-05 16:16:00,28.9,20.4,31.29,NNW,341,0.0,0.0,70,0.00,,,0.00,33.00,VWS V14.00,2013-01-05 23:16:00,
2013-01-05 16:21:00,28.8,20.3,31.29,NNW,342,0.0,0.0,70,0.00,,,0.00,30.00,VWS V14.00,2013-01-05 23:21:00,
2013-01-05 16:26:00,28.8,20.3,31.29,NNW,342,0.0,0.0,70,0.00,,,0.00,25.00,VWS V14.00,2013-01-05 23:26:00,
2013-01-05 16:31:00,28.7,20.2,31.28,NNW,342,0.0,0.0,70,0.00,,,0.00,21.00,VWS V14.00,2013-01-05 23:31:00,
2013-01-05 16:36:00,28.5,20.0,31.28,NNW,341,0.0,0.0,70,0.00,,,0.00,18.00,VWS V14.00,2013-01-05 23:36:00,
2013-01-05 16:41:00,28.2,19.7,31.28,NNW,341,0.0,0.0,70,0.00,,,0.00,12.00,VWS V14.00,2013-01-05 23:41:00,
2013-01-05 16:46:00,27.9,19.7,31.28,NNW,342,0.0,0.0,71,0.00,,,0.00,9.00,VWS V14.00,2013-01-05 23:46:00,
2013-01-05 16:51:00,27.6,19.8,31.28,NNW,342,0.0,0.0,72,0.00,,,0.00,7.00,VWS V14.00,2013-01-05 23:51:00,
2013-01-05 16:56:00,27.4,19.6,31.29,NNW,342,0.0,0.0,72,0.00,,,0.00,5.00,VWS V14.00,2013-01-05 23:56:00,
2013-01-05 17:01:00,27.2,19.7,31.29,NNW,341,0.0,0.0,73,0.00,,,0.00,0.00,VWS V14.00,2013-01-06 00:01:00,
2013-01-05 17:06:00,27.0,19.5,31.29,NNW,342,0.0,0.0,73,0.00,,,0.00,0.00,VWS V14.00,2013-01-06 00:06:00,
2013-01-05 17:11:00,26.8,19.6,31.29,NNW,342,0.0,0.0,74,0.00,,,0.00,0.00,VWS V14.00,2013-01-06 00:11:00,
2013-01-05 17:16:00,26.6,19.4,31.29,NNW,341,0.0,0.0,74,0.00,,,0.00,0.00,VWS V14.00,2013-01-06 00:16:00,
2013-01-05 17:21:00,26.5,19.4,31.29,NNW,342,0.0,0.0,74,0.00,,,0.00,0.00,VWS V14.00,2013-01-06 00:21:00,
2013-01-05 17:26:00,26.3,19.5,31.29,NNW,342,0.0,0.0,75,0.00,,,0.00,0.00,VWS V14.00,2013-01-06 00:26:00,
2013-01-05 17:31:00,26.1,19.0,31.29,NNW,342,0.0,0.0,74,0.00,,,0.00,0.00,VWS V14.00,2013-01-06 00:31:00,
2013-01-05 17:36:00,25.8,19.0,31.29,NNW,342,0.0,0.0,75,0.00,,,0.00,0.00,VWS V14.00,2013-01-06 00:36:00,
2013-01-05 17:41:00,25.7,18.9,31.29,NNW,341,0.0,0.0,75,0.00,,,0.00,0.00,VWS V14.00,2013-01-06 00:41:00,
2013-01-05 17:46:00,25.4,18.6,31.30,NNW,341,0.0,0.0,75,0.00,,,0.00,0.00,VWS V14.00,2013-01-06 00:46:00,
2013-01-05 17:51:00,25.3,18.8,31.30,NNW,341,0.0,0.0,76,0.00,,,0.00,0.00,VWS V14.00,2013-01-06 00:51:00,
2013-01-05 17:56:00,25.1,18.6,31.30,NNW,342,0.0,0.0,76,0.00,,,0.00,0.00,VWS V14.00,2013-01-06 00:56:00,
2013-01-05 18:01:00,24.9,18.4,31.31,NNW,342,0.0,0.0,76,0.00,,,0.00,0.00,VWS V14.00,2013-01-06 01:01:00,
2013-01-05 18:06:00,24.7,18.5,31.32,NNW,341,0.0,0.0,77,0.00,,,0.00,0.00,VWS V14.00,2013-01-06 01:06:00,
2013-01-05 18:11:00,24.6,18.4,31.31,NNW,342,0.0,0.0,77,0.00,,,0.00,0.00,VWS V14.00,2013-01-06 01:11:00,
2013-01-05 18:16:00,24.5,18.3,31.31,NNW,342,0.0,0.0,77,0.00,,,0.00,0.00,VWS V14.00,2013-01-06 01:16:00,
2013-01-05 18:21:00,24.5,18.6,31.31,NNW,341,0.0,0.0,78,0.00,,,0.00,0.00,VWS V14.00,2013-01-06 01:21:00,
2013-01-05 18:26:00,24.5,18.6,31.31,NNW,341,0.0,0.0,78,0.00,,,0.00,0.00,VWS V14.00,2013-01-06 01:26:00,
2013-01-05 18:31:00,24.5,18.6,31.31,NNW,342,0.0,0.0,78,0.00,,,0.00,0.00,VWS V14.00,2013-01-06 01:31:00,
2013-01-05 18:36:00,24.5,18.6,31.31,NNW,342,0.0,0.0,78,0.00,,,0.00,0.00,VWS V14.00,2013-01-06 01:36:00,
2013-01-05 18:41:00,24.4,18.5,31.31,NNW,341,0.0,0.0,78,0.00,,,0.00,0.00,VWS V14.00,2013-01-06 01:41:00,
2013-01-05 18:46:00,24.4,18.5,31.31,NNW,341,0.0,0.0,78,0.00,,,0.00,0.00,VWS V14.00,2013-01-06 01:46:00,
2013-01-05 18:51:00,24.3,18.4,31.31,NNW,341,0.0,0.0,78,0.00,,,0.00,0.00,VWS V14.00,2013-01-06 01:51:00,
2013-01-05 18:56:00,24.2,18.3,31.31,NNW,342,0.0,0.0,78,0.00,,,0.00,0.00,VWS V14.00,2013-01-06 01:56:00,
2013-01-05 19:01:00,24.1,18.5,31.31,NNW,342,0.0,0.0,79,0.00,,,0.00,0.00,VWS V14.00,2013-01-06 02:01:00,
2013-01-05 19:06:00,24.0,18.5,31.33,NNW,341,0.0,0.0,79,0.00,,,0.00,0.00,VWS V14.00,2013-01-06 02:06:00,
2013-01-05 19:11:00,24.0,18.1,31.33,NNW,342,0.0,0.0,78,0.00,,,0.00,0.00,VWS V14.00,2013-01-06 02:11:00,
2013-01-05 19:16:00,23.9,18.4,31.33,NNW,342,0.0,0.0,79,0.00,,,0.00,0.00,VWS V14.00,2013-01-06 02:16:00,
2013-01-05 19:21:00,23.8,18.2,31.33,NNW,341,0.0,0.0,79,0.00,,,0.00,0.00,VWS V14.00,2013-01-06 02:21:00,
2013-01-05 19:26:00,23.6,18.1,31.33,NNW,341,0.0,0.0,79,0.00,,,0.00,0.00,VWS V14.00,2013-01-06 02:26:00,
2013-01-05 19:31:00,23.5,18.0,31.33,NNW,342,0.0,0.0,79,0.00,,,0.00,0.00,VWS V14.00,2013-01-06 02:31:00,
2013-01-05 19:36:00,23.4,18.1,31.33,NNW,342,0.0,0.0,80,0.00,,,0.00,0.00,VWS V14.00,2013-01-06 02:36:00,
2013-01-05 19:41:00,23.3,18.1,31.33,NNW,342,0.0,0.0,80,0.00,,,0.00,0.00,VWS V14.00,2013-01-06 02:41:00,
2013-01-05 19:46:00,23.3,18.1,31.33,NNW,342,0.0,0.0,80,0.00,,,0.00,0.00,VWS V14.00,2013-01-06 02:46:00,
2013-01-05 19:51:00,23.2,18.0,31.33,NNW,342,0.0,0.0,80,0.00,,,0.00,0.00,VWS V14.00,2013-01-06 02:51:00,
2013-01-05 19:56:00,23.1,17.9,31.33,NNW,342,0.0,0.0,80,0.00,,,0.00,0.00,VWS V14.00,2013-01-06 02:56:00,
2013-01-05 20:01:00,23.0,18.0,31.33,NNW,341,0.0,0.0,81,0.00,,,0.00,0.00,VWS V14.00,2013-01-06 03:01:00,
2013-01-05 20:06:00,23.0,18.0,31.32,NNW,342,0.0,0.0,81,0.00,,,0.00,0.00,VWS V14.00,2013-01-06 03:06:00,
2013-01-05 20:11:00,23.0,18.0,31.32,NNW,342,0.0,0.0,81,0.00,,,0.00,0.00,VWS V14.00,2013-01-06 03:11:00,
2013-01-05 20:16:00,23.0,18.0,31.31,NNW,341,0.0,0.0,81,0.00,,,0.00,0.00,VWS V14.00,2013-01-06 03:16:00,
2013-01-05 20:21:00,22.9,18.0,31.32,NNW,342,0.0,0.0,81,0.00,,,0.00,0.00,VWS V14.00,2013-01-06 03:21:00,
2013-01-05 20:26:00,22.9,18.2,31.32,NNW,341,0.0,0.0,82,0.00,,,0.00,0.00,VWS V14.00,2013-01-06 03:26:00,
2013-01-05 20:31:00,22.8,18.1,31.32,NNW,341,0.0,0.0,82,0.00,,,0.00,0.00,VWS V14.00,2013-01-06 03:31:00,
2013-01-05 20:36:00,22.9,18.2,31.32,NNW,342,0.0,0.0,82,0.00,,,0.00,0.00,VWS V14.00,2013-01-06 03:36:00,
2013-01-05 20:41:00,22.9,18.5,31.31,NNW,342,0.0,0.0,83,0.00,,,0.00,0.00,VWS V14.00,2013-01-06 03:41:00,
2013-01-05 20:46:00,22.9,18.5,31.31,NNW,342,0.0,0.0,83,0.00,,,0.00,0.00,VWS V14.00,2013-01-06 03:46:00,
2013-01-05 20:51:00,22.9,18.5,31.32,NNW,342,0.0,0.0,83,0.00,,,0.00,0.00,VWS V14.00,2013-01-06 03:51:00,
2013-01-05 20:56:00,22.9,18.5,31.31,NNW,342,0.0,0.0,83,0.00,,,0.00,0.00,VWS V14.00,2013-01-06 03:56:00,
2013-01-05 21:01:00,22.9,18.5,31.31,NNW,341,0.0,0.0,83,0.00,,,0.00,0.00,VWS V14.00,2013-01-06 04:01:00,
2013-01-05 21:06:00,22.9,18.5,31.28,NNW,341,0.0,0.0,83,0.00,,,0.00,0.00,VWS V14.00,2013-01-06 04:06:00,
2013-01-05 21:11:00,22.9,18.5,31.27,NNW,341,0.0,0.0,83,0.00,,,0.00,0.00,VWS V14.00,2013-01-06 04:11:00,
2013-01-05 21:16:00,22.9,18.5,31.27,NNW,341,0.0,0.0,83,0.00,,,0.00,0.00,VWS V14.00,2013-01-06 04:16:00,
2013-01-05 21:21:00,22.9,18.5,31.27,NNW,342,0.0,0.0,83,0.00,,,0.00,0.00,VWS V14.00,2013-01-06 04:21:00,
2013-01-05 21:26:00,23.0,18.6,31.27,NNW,342,0.0,0.0,83,0.00,,,0.00,0.00,VWS V14.00,2013-01-06 04:26:00,
2013-01-05 21:31:00,23.0,18.6,31.27,NNW,341,0.0,0.0,83,0.00,,,0.00,0.00,VWS V14.00,2013-01-06 04:31:00,
2013-01-05 21:36:00,22.9,18.2,31.27,NNW,342,0.0,0.0,82,0.00,,,0.00,0.00,VWS V14.00,2013-01-06 04:36:00,
2013-01-05 21:41:00,22.7,18.0,31.27,NNW,341,0.0,0.0,82,0.00,,,0.00,0.00,VWS V14.00,2013-01-06 04:41:00,
2013-01-05 21:46:00,22.5,17.9,31.27,NNW,341,0.0,1.0,82,0.00,,,0.00,0.00,VWS V14.00,2013-01-06 04:46:00,
2013-01-05 21:51:00,22.3,17.6,31.28,NNW,341,0.0,0.0,82,0.00,,,0.00,0.00,VWS V14.00,2013-01-06 04:51:00,
2013-01-05 21:56:00,22.2,17.8,31.28,NNW,342,0.0,0.0,83,0.00,,,0.00,0.00,VWS V14.00,2013-01-06 04:56:00,
2013-01-05 22:00:00,22.0,17.4,31.28,NNW,342,0.0,0.0,82,0.00,,,0.00,0.00,VWS V14.00,2013-01-06 05:00:00,
2013-01-05 22:01:00,21.9,17.3,31.28,NNW,342,0.0,0.0,82,0.00,,,0.00,0.00,VWS V14.00,2013-01-06 05:01:00,
2013-01-05 22:02:00,21.9,17.3,31.28,NNW,341,0.0,0.0,82,0.00,,,0.00,0.00,VWS V14.00,2013-01-06 05:02:00,
2013-01-05 22:07:00,21.6,17.0,31.26,NNW,342,0.0,0.0,82,0.00,,,0.00,0.00,VWS V14.00,2013-01-06 05:07:00,
2013-01-05 22:08:00,21.6,17.0,31.26,NNW,342,0.0,0.0,82,0.00,,,0.00,0.00,VWS V14.00,2013-01-06 05:08:00,
2013-01-05 22:13:00,21.4,16.8,31.27,NNW,342,0.0,0.0,82,0.00,,,0.00,0.00,VWS V14.00,2013-01-06 05:13:00,
2013-01-05 22:18:00,21.3,17.0,31.27,NNW,342,0.0,0.0,83,0.00,,,0.00,0.00,VWS V14.00,2013-01-06 05:18:00,
2013-01-05 22:23:00,21.1,16.5,31.27,NNW,342,0.0,0.0,82,0.00,,,0.00,0.00,VWS V14.00,2013-01-06 05:23:00,
2013-01-05 22:28:00,20.7,15.8,31.27,NNW,342,0.0,0.0,81,0.00,,,0.00,0.00,VWS V14.00,2013-01-06 05:28:00,
2013-01-05 22:33:00,20.3,15.7,31.27,NNW,342,0.0,0.0,82,0.00,,,0.00,0.00,VWS V14.00,2013-01-06 05:33:00,
2013-01-05 22:38:00,20.0,15.7,31.27,NNW,341,0.0,0.0,83,0.00,,,0.00,0.00,VWS V14.00,2013-01-06 05:38:00,
2013-01-05 22:43:00,19.9,15.6,31.27,NNW,342,0.0,0.0,83,0.00,,,0.00,0.00,VWS V14.00,2013-01-06 05:43:00,
2013-01-05 22:48:00,19.9,15.9,31.26,NNW,342,0.0,0.0,84,0.00,,,0.00,0.00,VWS V14.00,2013-01-06 05:48:00,
2013-01-05 22:53:00,19.8,15.8,31.26,NNW,341,0.0,0.0,84,0.00,,,0.00,0.00,VWS V14.00,2013-01-06 05:53:00,
2013-01-05 22:58:00,19.8,15.8,31.26,NNW,342,0.0,1.0,84,0.00,,,0.00,0.00,VWS V14.00,2013-01-06 05:58:00,
2013-01-05 23:03:00,19.7,15.7,31.26,NNW,342,0.0,0.0,84,0.00,,,0.00,0.00,VWS V14.00,2013-01-06 06:03:00,
2013-01-05 23:08:00,19.7,15.9,31.24,NNW,341,0.0,0.0,85,0.00,,,0.00,0.00,VWS V14.00,2013-01-06 06:08:00,
2013-01-05 23:13:00,19.8,16.3,31.24,NNW,341,0.0,0.0,86,0.00,,,0.00,0.00,VWS V14.00,2013-01-06 06:13:00,
2013-01-05 23:18:00,20.0,16.5,31.24,NNW,342,0.0,0.0,86,0.00,,,0.00,0.00,VWS V14.00,2013-01-06 06:18:00,
2013-01-05 23:23:00,20.1,16.6,31.24,NNW,341,0.0,0.0,86,0.00,,,0.00,0.00,VWS V14.00,2013-01-06 06:23:00,
2013-01-05 23:28:00,20.2,16.7,31.24,NNW,341,0.0,0.0,86,0.00,,,0.00,0.00,VWS V14.00,2013-01-06 06:28:00,
2013-01-05 23:33:00,20.1,16.3,31.24,NNW,342,0.0,0.0,85,0.00,,,0.00,0.00,VWS V14.00,2013-01-06 06:33:00,
2013-01-05 23:38:00,20.0,16.2,31.24,NNW,342,0.0,1.0,85,0.00,,,0.00,0.00,VWS V14.00,2013-01-06 06:38:00,
2013-01-05 23:43:00,20.0,16.2,31.24,NNW,342,0.0,1.0,85,0.00,,,0.00,0.00,VWS V14.00,2013-01-06 06:43:00,
2013-01-05 23:48:00,20.1,16.6,31.23,NNW,341,0.0,0.0,86,0.00,,,0.00,0.00,VWS V14.00,2013-01-06 06:48:00,
2013-01-05 23:53:00,20.2,16.7,31.22,NNW,342,1.0,2.0,86,0.00,,,0.00,0.00,VWS V14.00,2013-01-06 06:53:00,
2013-01-05 23:58:00,20.1,16.3,31.23,NNW,342,0.0,2.0,85,0.00,,,0.00,0.00,VWS V14.00,2013-01-06 06:58:00,